"Pseudo-MPEC" for C1HMH42

Created 2019 Dec 7 11:07:09 UT using Find_Orb

Click here for an explanation of pseudo-MPECs

 
 Astrometry: 
     C1HMH42  C2019 12 02.41092 08 12 40.60 +33 35 36.0    ~C2Ab 21.9 GVNEOCPG96
     C1HMH42  C2019 12 02.41618 08 12 40.29 +33 35 56.5    ~C2Ab 21.6 GVNEOCPG96
     C1HMH42  C2019 12 02.42142 08 12 40.03 +33 36 17.2    ~C2Ab 21.8 GVNEOCPG96
     C1HMH42  C2019 12 02.42670 08 12 39.75 +33 36 38.4    ~C2Ab 21.9 GVNEOCPG96
     C1HMH42  C2019 12 02.45078 08 12 38.37 +33 38 13.6    ~C2BM       VNEOCPV06
     C1HMH42  C2019 12 02.45394 08 12 38.21 +33 38 25.2    ~C2BM       VNEOCPV06
     C1HMH42  C2019 12 02.45711 08 12 38.07 +33 38 38.1    ~C2BM 22.5 GVNEOCPV06
     C1HMH42  C2019 12 02.46028 08 12 37.90 +33 38 51.7    ~C2BM       VNEOCPV06

Station data:
(G96) Mt. Lemmon Survey  (N32.442754 W110.788720)  US/Arizona.  Observers T.
   A. Pruyne, B. M. Africano, E. J. Christensen, G. A. Farneth, D. C. Fuls,
   A. R. Gibbs, A. D. Grauer, H. Gröller, J. A. Johnson, R. A. Kowalski, S.
   M. Larson, G. J. Leonard, D. Rankin, R. L. Seaman, F. C. Shelly. 1.5-m
   reflector + 10K CCD.
(V06) Catalina Sky Survey-Kuiper  (N32.416847 W110.732550)  US/Arizona.
   Observers T. A. Pruyne, B. M. Africano, E. J. Christensen, G. A. Farneth,
   D. C. Fuls, A. R. Gibbs, A. D. Grauer, H. Gröller, J. A. Johnson, R. A.
   Kowalski, S. M. Larson, G. J. Leonard, D. Rankin, R. L. Seaman, F. C.
   Shelly. 1.55-m reflector + CCD.

Orbital elements:  C1HMH42
   Perihelion 2019 Jul 11.616709 +/- 118 TT = 14:48:03 (JD 2458676.116709)
Epoch 2019 Dec  2.0 TT = JDT 2458819.5   Earth MOID: 0.1195   AutoNEOCP
M 139.04405298 +/- 90               (J2000 ecliptic)
n   0.96973679 +/- 0.499            Peri.  220.34814 +/- 70
a   1.01088123 +/- 0.347            Node    67.82947 +/- 19
e   0.1722855 +/- 0.19              Incl.   14.68647 +/- 21
P   1.02/371.23d           H 23.5   G  0.15   U 12.3  SR
q 0.83672099 +/- 0.388    Q 1.18504146 +/- 1.2
From 8 observations 2019 Dec. 2 (71.1 min); mean residual 0".34
Residuals in arcseconds: 
191202 G96  .07+  .25+    191202 G96  .22+  .11+    191202 V06  .21+  .31-    
191202 G96  .22-  .11-    191202 V06  .42-  .14+    191202 V06  .28+  .81+    
191202 G96  .10+  .18-    191202 V06  .23-  .71-    

Ephemerides (geocentric):
Date (UTC) HH   RA              Dec         delta   r     elong  mag " sig PA
---- -- -- --  -------------   -----------  ------ ------ -----  --- ---- ---
2019 12 07 11  08 07 36.271   +39 18 06.76  .22939 1.1607 135.8 22.1 3339  88
2019 12 07 12  08 07 32.803   +39 21 00.83  .22934 1.1608 135.9 22.1 3407  88
2019 12 07 13  08 07 29.318   +39 23 54.95  .22929 1.1608 135.9 22.1 3477  88
2019 12 07 14  08 07 25.815   +39 26 49.12  .22924 1.1609 135.9 22.1 3547  87
2019 12 07 15  08 07 22.295   +39 29 43.34  .22919 1.1610 136.0 22.1 3619  87
2019 12 07 16  08 07 18.759   +39 32 37.61  .22914 1.1610 136.0 22.1 3692  87
2019 12 07 17  08 07 15.204   +39 35 31.93  .22910 1.1611 136.1 22.1 3765  87
2019 12 07 18  08 07 11.633   +39 38 26.30  .22905 1.1611 136.1 22.1 3840  87
2019 12 07 19  08 07 08.044   +39 41 20.71  .22900 1.1612 136.2 22.1 3916  87
2019 12 07 20  08 07 04.438   +39 44 15.17  .22895 1.1612 136.2 22.1 3993  87
2019 12 07 21  08 07 00.815   +39 47 09.68  .22891 1.1613 136.2 22.1 4071  87
2019 12 07 22  08 06 57.174   +39 50 04.23  .22886 1.1613 136.3 22.1 4150  87
2019 12 07 23  08 06 53.515   +39 52 58.82  .22881 1.1614 136.3 22.1 4231  87
2019 12 08 00  08 06 49.839   +39 55 53.46  .22877 1.1614 136.4 22.1 4312  87
2019 12 08 01  08 06 46.146   +39 58 48.15  .22872 1.1615 136.4 22.1 4395  87
2019 12 08 02  08 06 42.435   +40 01 42.88  .22867 1.1615 136.4 22.1 4479  86
2019 12 08 03  08 06 38.706   +40 04 37.65  .22863 1.1616 136.5 22.1 4565  86
2019 12 08 04  08 06 34.960   +40 07 32.46  .22858 1.1617 136.5 22.1 4651  86
2019 12 08 05  08 06 31.196   +40 10 27.31  .22854 1.1617 136.6 22.1 4739  86
2019 12 08 06  08 06 27.414   +40 13 22.20  .22849 1.1618 136.6 22.1 4828  86
2019 12 08 07  08 06 23.614   +40 16 17.14  .22845 1.1618 136.7 22.1 4918  86
2019 12 08 08  08 06 19.797   +40 19 12.11  .22840 1.1619 136.7 22.1 5010  86
2019 12 08 09  08 06 15.962   +40 22 07.12  .22836 1.1619 136.7 22.1 5103  86
2019 12 08 10  08 06 12.109   +40 25 02.17  .22832 1.1620 136.8 22.1 5197  86
2019 12 08 11  08 06 08.238   +40 27 57.26  .22827 1.1620 136.8 22.1 5293  86
2019 12 08 12  08 06 04.349   +40 30 52.38  .22823 1.1621 136.9 22.1 5390  86
2019 12 08 13  08 06 00.442   +40 33 47.54  .22819 1.1621 136.9 22.1 5489  86
2019 12 08 14  08 05 56.517   +40 36 42.74  .22814 1.1622 136.9 22.1 5588  85
2019 12 08 15  08 05 52.575   +40 39 37.97  .22810 1.1622 137.0 22.1 5690  85
2019 12 08 16  08 05 48.614   +40 42 33.23  .22806 1.1623 137.0 22.1 5793  85
2019 12 08 17  08 05 44.634   +40 45 28.53  .22802 1.1623 137.1 22.1 5897  85
2019 12 08 18  08 05 40.637   +40 48 23.86  .22797 1.1624 137.1 22.1 6003  85
2019 12 08 19  08 05 36.622   +40 51 19.22  .22793 1.1625 137.1 22.1 6111  85
2019 12 08 20  08 05 32.588   +40 54 14.62  .22789 1.1625 137.2 22.0 6220  85
2019 12 08 21  08 05 28.536   +40 57 10.05  .22785 1.1626 137.2 22.0 6330  85
2019 12 08 22  08 05 24.466   +41 00 05.50  .22781 1.1626 137.3 22.0 6443  85
2019 12 08 23  08 05 20.377   +41 03 00.99  .22777 1.1627 137.3 22.0 6557  85
2019 12 09 00  08 05 16.270   +41 05 56.51  .22773 1.1627 137.3 22.0 6672  85
2019 12 09 01  08 05 12.144   +41 08 52.05  .22769 1.1628 137.4 22.0 6790  85
2019 12 09 02  08 05 08.000   +41 11 47.62  .22765 1.1628 137.4 22.0 6909  85
2019 12 09 03  08 05 03.838   +41 14 43.22  .22761 1.1629 137.5 22.0 7030  84
2019 12 09 04  08 04 59.657   +41 17 38.85  .22757 1.1629 137.5 22.0 7152  84
2019 12 09 05  08 04 55.458   +41 20 34.50  .22753 1.1630 137.5 22.0 7277  84
2019 12 09 06  08 04 51.239   +41 23 30.18  .22749 1.1630 137.6 22.0 7403  84
2019 12 09 07  08 04 47.003   +41 26 25.88  .22745 1.1631 137.6 22.0 7531  84
2019 12 09 08  08 04 42.747   +41 29 21.61  .22741 1.1631 137.7 22.0 7661  84
2019 12 09 09  08 04 38.473   +41 32 17.35  .22738 1.1632 137.7 22.0 7793  84
2019 12 09 10  08 04 34.180   +41 35 13.13  .22734 1.1632 137.7 22.0 7927  84